sat.trackr.live / text

‹ back to catalog

STARLINK-30935

NORAD 58455 · 2023-183U

PAYLOAD ACTIVE UNKNOWN

§ Identity

Operator
Country
US
Launch date
2023-11-28
Launch site
AFETR
Launch vehicle
Mass (kg)
RCS (m²)

Purposes: comms

External: N2YO · Heavens-Above · Gunter

§ Orbital elements

Epoch: 2026-09-20T08:40:04.601568Z

Period
94.27 min
Inclination
43.0032°
Eccentricity
0.0001261
Mean motion
15.27579904 rev/d
Perigee alt
482.2 km
Apogee alt
483.9 km
Semi-major
6,861.2 km
B*
2.3118e-5
RAAN
22.4828°
Arg perigee
264.7100°
Mean anomaly
95.3608°
Rev number
15,650

§ Raw data

STARLINK-309351 58455U 23183U   26263.36116437  .00000374  00000+0  23118-4 0  99962 58455  43.0032  22.4828 0001261 264.7100  95.3608 15.27579904156504

JSON: /api/v1/satellites/58455 · /tle

For live sub-satellite position, see the globe view (requires WebGL).

§ Visibility from observer

Set your observer location to see the next 7 days of passes ≥ 10°. The values pass through the URL so the page stays shareable.

No JS? Fill the form by hand. The geolocation button needs JavaScript.